Location: Unspecified
(0.0000°N, 0.0000°E)
Time: 03:22:23
(UTC+00:00)

Vanguard 2 - Pass Details

Date: 07 June 2024
Orbit: 552 x 2914 km, 32.9° (Epoch: 14 June)

Event Time Altitude Azimuth Distance (km) Brightness Sun altitude
Exits shadow 02:20:04 13° 152° (SSE) 4,755 11.4 -48.8°
Drops below altitude 10° 02:24:37 10° 134° (SE) 5,267 11.8 -47.9°
Sets 02:33:28 0° 110° (ESE) 6,648 12.7 -46.1°
